Tracking 19224 objects as of 22-Jul-2018
HD Live streaming from Space Station
objects crossing your sky now

FENGYUN 1C DEB

Track FENGYUN 1C DEB now!
10-day predictions


NORAD ID: 30210
Int'l Code: 1999-025VT
Perigee: 845.3 km
Apogee: 934.4 km
Inclination: 99.2 °
Period: 102.6 minutes
Semi major axis: 7260 km
RCS: 0.0622 m2 (small)
Launch date: May 10, 1999
Source: People's Republic of China (PRC)
Launch site: Taiyaun Space Center, China (TSC)

Note: This is SATELLITE DEBRIS
aabbcc
Your satellite tracking list
Your tracking list is empty




NASA's NSSDC Master Catalog

Two Line Element Set (TLE):
1 30210U 99025VT  18203.18270229  .00000124  00000-0  10696-3 0  9998
2 30210  99.1730 165.1008 0061322  42.3060  83.0961 14.03206381588564
Source of the keplerian elements: AFSPC